Location: Brede
(50.9167°N, 0.6000°E)
Time: 17:10:43
(UTC+00:00)

Cosmos 1908 - Pass Details

Date: 08 August 2020
Orbit: 510 x 531 km, 82.5° (Epoch: 23 September)

Event Time Altitude Azimuth Distance (km) Brightness Sun altitude
Exits shadow 03:25:16 - 176° (S) 2,621 6.4 -9.9°
Reaches altitude 10° 03:27:20 10° 171° (S) 1,778 5.6 -9.6°
Maximum altitude 03:31:08 51° 95° (E) 676 4.1 -9.2°
Drops below altitude 10° 03:34:58 10° 19° (NNE) 1,796 7.0 -8.7°
Sets 03:37:10 0° 15° (NNE) 2,691 7.8 -8.4°
